• In Netherlands
  • List of Countries
  • For 7 days
  • Water Temperature
  • Satellite Maps
  • Weather Map
  • Weather Widgets
  • user-avatar
    Login

    Hourly Weather Abovyan

    Today, 23 May, Wednesday

    Time Temperature Precipitation Wind Pressure Humidity
    00:00 +18°C° 0.5 mm 1 mps 674 mmHg 81%
    01:00 +18°C° 0.2 mm 1 mps 674 mmHg 82%
    02:00 +16°C° 0.2 mm 1 mps 674 mmHg 83%
    03:00 +16°C° 0 mm 1 mps 674 mmHg 85%
    04:00 +16°C° 0.2 mm 1 mps 674 mmHg 83%
    05:00 +16°C° 0.2 mm 1 mps 674 mmHg 81%
    06:00 +18°C° 0.2 mm 1 mps 674 mmHg 79%
    07:00 +19°C° 0.1 mm 1 mps 675 mmHg 72%
    08:00 +20°C° 0.1 mm 2 mps 675 mmHg 66%
    09:00 +21°C° 0 mm 2 mps 675 mmHg 61%
    10:00 +23°C° 0.3 mm 2 mps 675 mmHg 58%
    11:00 +24°C° 0.3 mm 2 mps 675 mmHg 55%
    12:00 +25°C° 0.3 mm 3 mps 675 mmHg 52%
    13:00 +25°C° 0.6 mm 3 mps 675 mmHg 51%
    14:00 +25°C° 0.6 mm 3 mps 675 mmHg 51%
    15:00 +26°C° 0.6 mm 4 mps 674 mmHg 50%
    16:00 +25°C° 0.6 mm 3 mps 674 mmHg 52%
    17:00 +24°C° 0.6 mm 3 mps 674 mmHg 55%
    18:00 +24°C° 0.6 mm 3 mps 674 mmHg 58%
    19:00 +21°C° 0.3 mm 3 mps 674 mmHg 61%
    20:00 +19°C° 0.3 mm 3 mps 674 mmHg 65%
    21:00 +18°C° 0.3 mm 2 mps 674 mmHg 68%
    22:00 +17°C° 0.1 mm 2 mps 674 mmHg 68%
    23:00 +17°C° 0.1 mm 2 mps 673 mmHg 68%

    Tomorrow, 24 May, Thursday

    Time Temperature Precipitation Wind Pressure Humidity
    00:00 +16°C° 0.1 mm 2 mps 673 mmHg 68%
    01:00 +16°C° 0.1 mm 2 mps 673 mmHg 68%
    02:00 +15°C° 0.1 mm 2 mps 673 mmHg 68%
    03:00 +15°C° 0.1 mm 2 mps 673 mmHg 68%
    04:00 +16°C° 0 mm 2 mps 673 mmHg 67%
    05:00 +16°C° 0 mm 2 mps 673 mmHg 66%
    06:00 +16°C° 0 mm 2 mps 673 mmHg 65%
    07:00 +19°C° 0 mm 1 mps 673 mmHg 59%
    08:00 +21°C° 0 mm 1 mps 673 mmHg 53%
    09:00 +22°C° 0 mm 1 mps 673 mmHg 47%
    10:00 +23°C° 0.1 mm 1 mps 673 mmHg 45%
    11:00 +24°C° 0.1 mm 2 mps 673 mmHg 43%
    12:00 +25°C° 0.1 mm 2 mps 672 mmHg 41%
    13:00 +25°C° 0.2 mm 2 mps 672 mmHg 42%
    14:00 +25°C° 0.2 mm 2 mps 672 mmHg 42%
    15:00 +25°C° 0.2 mm 2 mps 671 mmHg 43%
    16:00 +25°C° 0.1 mm 2 mps 671 mmHg 45%
    17:00 +24°C° 0.1 mm 2 mps 671 mmHg 48%
    18:00 +24°C° 0.1 mm 2 mps 671 mmHg 51%
    19:00 +21°C° 0.1 mm 2 mps 671 mmHg 56%
    20:00 +19°C° 0.1 mm 2 mps 670 mmHg 60%
    21:00 +17°C° 0.1 mm 2 mps 670 mmHg 64%
    22:00 +17°C° 0 mm 2 mps 670 mmHg 66%
    23:00 +16°C° 0 mm 2 mps 670 mmHg 68%

    Day after tomorrow, 25 May, Friday

    Time Temperature Precipitation Wind Pressure Humidity
    00:00 +16°C° 0 mm 2 mps 670 mmHg 69%
    01:00 +16°C° 0.1 mm 1 mps 669 mmHg 70%
    02:00 +15°C° 0.1 mm 1 mps 669 mmHg 70%
    03:00 +15°C° 0.1 mm 1 mps 669 mmHg 71%
    04:00 +16°C° 0.1 mm 1 mps 669 mmHg 69%
    05:00 +16°C° 0.1 mm 1 mps 669 mmHg 67%
    06:00 +18°C° 0.1 mm 1 mps 669 mmHg 65%
    07:00 +20°C° 0.1 mm 1 mps 669 mmHg 61%
    08:00 +21°C° 0.1 mm 1 mps 669 mmHg 57%
    09:00 +21°C° 0.1 mm 2 mps 669 mmHg 53%
    10:00 +23°C° 0.3 mm 2 mps 669 mmHg 51%
    11:00 +25°C° 0.3 mm 2 mps 669 mmHg 49%
    12:00 +26°C° 0.3 mm 2 mps 669 mmHg 46%
    13:00 +26°C° 0.7 mm 2 mps 669 mmHg 46%
    14:00 +26°C° 0.7 mm 2 mps 669 mmHg 45%
    15:00 +26°C° 0.7 mm 3 mps 669 mmHg 45%
    16:00 +26°C° 0.7 mm 2 mps 668 mmHg 48%
    17:00 +25°C° 0.7 mm 2 mps 668 mmHg 52%
    18:00 +24°C° 0.7 mm 2 mps 668 mmHg 55%
    19:00 +23°C° 0.6 mm 2 mps 668 mmHg 57%
    20:00 +21°C° 0.6 mm 1 mps 669 mmHg 60%
    21:00 +20°C° 0.6 mm 1 mps 669 mmHg 62%
    22:00 +19°C° 0.3 mm 1 mps 669 mmHg 63%
    23:00 +19°C° 0.3 mm 1 mps 668 mmHg 65%

    26 May, Saturday

    Time Temperature Precipitation Wind Pressure Humidity
    00:00 +19°C° 0.3 mm 1 mps 668 mmHg 66%
    01:00 +18°C° 0.3 mm 1 mps 668 mmHg 67%
    02:00 +18°C° 0.3 mm 1 mps 668 mmHg 68%
    03:00 +18°C° 0.3 mm 1 mps 668 mmHg 69%
    04:00 +18°C° 0.3 mm 1 mps 669 mmHg 68%
    05:00 +19°C° 0.3 mm 1 mps 669 mmHg 67%
    06:00 +19°C° 0.3 mm 1 mps 669 mmHg 67%
    07:00 +21°C° 0.1 mm 1 mps 669 mmHg 62%
    08:00 +22°C° 0.1 mm 1 mps 669 mmHg 57%
    09:00 +24°C° 0.1 mm 2 mps 670 mmHg 52%
    10:00 +25°C° 0.2 mm 2 mps 670 mmHg 49%
    11:00 +26°C° 0.2 mm 2 mps 670 mmHg 46%
    12:00 +27°C° 0.2 mm 2 mps 670 mmHg 43%
    13:00 +27°C° 0.7 mm 2 mps 669 mmHg 43%
    14:00 +27°C° 0.7 mm 2 mps 669 mmHg 43%
    15:00 +27°C° 0.7 mm 3 mps 669 mmHg 43%
    16:00 +26°C° 1.4 mm 2 mps 669 mmHg 48%
    17:00 +25°C° 1.4 mm 2 mps 669 mmHg 54%
    18:00 +24°C° 1.4 mm 2 mps 669 mmHg 59%
    19:00 +22°C° 1.9 mm 3 mps 669 mmHg 64%
    20:00 +20°C° 1.9 mm 3 mps 670 mmHg 69%
    21:00 +19°C° 1.9 mm 3 mps 670 mmHg 73%
    22:00 +18°C° 0.3 mm 2 mps 671 mmHg 74%
    23:00 +19°C° 0.3 mm 1 mps 671 mmHg 74%

    27 May, Sunday

    Time Temperature Precipitation Wind Pressure Humidity
    00:00 +18°C° 0.3 mm 1 mps 671 mmHg 75%
    01:00 +18°C° 0.4 mm 1 mps 671 mmHg 74%
    02:00 +18°C° 0.4 mm 1 mps 671 mmHg 74%
    03:00 +16°C° 0.4 mm 1 mps 671 mmHg 74%
    04:00 +18°C° 0.3 mm 1 mps 671 mmHg 72%
    05:00 +19°C° 0.3 mm 1 mps 672 mmHg 71%
    06:00 +19°C° 0.3 mm 1 mps 672 mmHg 69%
    07:00 +21°C° 0.1 mm 1 mps 673 mmHg 64%
    08:00 +22°C° 0.1 mm 1 mps 673 mmHg 58%
    09:00 +24°C° 0.1 mm 2 mps 674 mmHg 52%
    10:00 +25°C° 0 mm 2 mps 674 mmHg 48%
    11:00 +26°C° 0 mm 2 mps 674 mmHg 45%
    12:00 +27°C° 0 mm 2 mps 674 mmHg 41%
    13:00 +27°C° 0.2 mm 2 mps 674 mmHg 40%
    14:00 +28°C° 0.2 mm 2 mps 674 mmHg 40%
    15:00 +28°C° 0.2 mm 1 mps 674 mmHg 40%
    16:00 +27°C° 0.3 mm 2 mps 674 mmHg 44%
    17:00 +26°C° 0.3 mm 2 mps 674 mmHg 49%
    18:00 +25°C° 0.3 mm 3 mps 674 mmHg 54%
    19:00 +22°C° 0.2 mm 3 mps 674 mmHg 59%
    20:00 +21°C° 0.2 mm 3 mps 674 mmHg 64%
    21:00 +19°C° 0.2 mm 3 mps 675 mmHg 69%
    22:00 +18°C° 0.1 mm 3 mps 675 mmHg 71%
    23:00 +18°C° 0.1 mm 3 mps 675 mmHg 73%

    28 May, Monday

    Time Temperature Precipitation Wind Pressure Humidity
    00:00 +17°C° 0.1 mm 3 mps 675 mmHg 75%
    01:00 +17°C° 0 mm 2 mps 675 mmHg 75%
    02:00 +16°C° 0 mm 2 mps 674 mmHg 76%
    03:00 +16°C° 0 mm 2 mps 674 mmHg 77%
    04:00 +17°C° 0 mm 2 mps 675 mmHg 75%
    05:00 +17°C° 0 mm 2 mps 675 mmHg 73%
    06:00 +19°C° 0 mm 1 mps 675 mmHg 71%
    07:00 +21°C° 0 mm 1 mps 675 mmHg 64%
    08:00 +23°C° 0 mm 1 mps 675 mmHg 56%
    09:00 +25°C° 0 mm 1 mps 675 mmHg 49%
    10:00 +26°C° 0 mm 2 mps 675 mmHg 46%
    11:00 +27°C° 0 mm 2 mps 675 mmHg 43%
    12:00 +28°C° 0 mm 2 mps 675 mmHg 39%
    13:00 +29°C° 0.1 mm 2 mps 674 mmHg 39%
    14:00 +29°C° 0.1 mm 2 mps 674 mmHg 38%
    15:00 +29°C° 0.1 mm 2 mps 674 mmHg 38%
    16:00 +28°C° 0.5 mm 2 mps 674 mmHg 43%
    17:00 +27°C° 0.5 mm 1 mps 674 mmHg 48%
    18:00 +26°C° 0.5 mm 1 mps 673 mmHg 53%
    19:00 +24°C° 0.4 mm 1 mps 673 mmHg 57%
    20:00 +23°C° 0.4 mm 2 mps 673 mmHg 61%
    21:00 +20°C° 0.4 mm 2 mps 673 mmHg 65%
    22:00 +20°C° 0 mm 2 mps 672 mmHg 68%
    23:00 +19°C° 0 mm 2 mps 672 mmHg 70%
    Show more